{"data":{"norad_id":68276,"epoch":"2026-05-24T18:41:20.721120Z","epoch_age_seconds":101726,"freshness":"FRESH","line1":"1 68276U 26055Q   26144.77871205 -.01692874  00000+0 -58510-1 0  9999","line2":"2 68276  53.1591 324.9024 0015625  48.4554 311.7785 15.32416992 11598","mean_motion":15.32416992,"eccentricity":0.0015625,"inclination_deg":53.1591,"raan_deg":324.9024,"arg_perigee_deg":48.4554,"mean_anomaly_deg":311.7785,"bstar":-0.05851,"rev_number":1159,"period_min":93.969200780045,"perigee_km":457.90548071995,"apogee_km":479.30154482236,"semimajor_km":6846.7405127712,"source":"CELESTRAK","updated_at":"2026-05-25T13:38:21.892961Z"}}